This is the latest recevied weather packets stored in our database for station/object KK6LVQ-13. If no packets are shown the sender has not sent any weather packets the latest 10 day(s).
| Time | Temp. | Humidity | Pressure | Rain* | Wind** | Luminosity | Snow |
|---|---|---|---|---|---|---|---|
| 1778192928 | 24.44° C | 52% | 1021.1 hPa | 0 mm | - | 652 W/m² | - |
| 1778192624 | 25° C | 53% | 1021.1 hPa | 0 mm | - | 661 W/m² | - |
| 1778192321 | 25° C | 54% | 1021 hPa | 0 mm | - | 670 W/m² | - |
| 1778192018 | 24.44° C | 54% | 1021.1 hPa | 0 mm | - | 680 W/m² | - |
| 1778191713 | 25° C | 55% | 1021.1 hPa | 0 mm | - | 690 W/m² | - |
| 1778191412 | 25° C | 53% | 1021.2 hPa | 0 mm | - | 698 W/m² | - |
| 1778191107 | 25° C | 51% | 1021.2 hPa | 0 mm | - | 708 W/m² | - |
| 1778190805 | 25° C | 52% | 1021.1 hPa | 0 mm | - | 717 W/m² | - |
| 1778190502 | 25.56° C | 50% | 1021.2 hPa | 0 mm | - | 724 W/m² | - |
| 1778190200 | 25.56° C | 52% | 1021.1 hPa | 0 mm | - | 732 W/m² | - |
| 1778189895 | 25.56° C | 51% | 1021.4 hPa | 0 mm | - | 738 W/m² | - |
| 1778189592 | 25° C | 51% | 1021.2 hPa | 0 mm | - | 745 W/m² | - |
| 1778189289 | 25° C | 51% | 1021.5 hPa | 0 mm | - | 752 W/m² | - |
| 1778188985 | 25° C | 51% | 1021.4 hPa | 0 mm | - | 758 W/m² | - |
| 1778188681 | 25° C | 49% | 1021.6 hPa | 0 mm | - | 764 W/m² | - |
| 1778188378 | 25° C | 50% | 1021.5 hPa | 0 mm | - | 768 W/m² | - |
| 1778188075 | 25° C | 49% | 1021.9 hPa | 0 mm | - | 774 W/m² | - |
| 1778187772 | 25° C | 52% | 1021.9 hPa | 0 mm | - | 780 W/m² | - |
| 1778187468 | 25° C | 50% | 1021.8 hPa | 0 mm | - | 781 W/m² | - |
| 1778187165 | 24.44° C | 52% | 1021.8 hPa | 0 mm | - | 781 W/m² | - |
| 1778186861 | 25° C | 50% | 1021.9 hPa | 0 mm | - | 786 W/m² | - |
| 1778186559 | 24.44° C | 50% | 1021.8 hPa | 0 mm | - | 789 W/m² | - |
| 1778186257 | 25° C | 51% | 1022.2 hPa | 0 mm | - | 792 W/m² | - |
| 1778185954 | 24.44° C | 49% | 1022 hPa | 0 mm | - | 794 W/m² | - |
| 1778185649 | 24.44° C | 53% | 1022.2 hPa | 0 mm | - | 796 W/m² | - |
* Rain latest hour (hover to see other rain measurements)
** Current wind speed in m/s (hover to see current wind gust speed)